Tracking 28125 objects as of 4-Oct-2023
HD Live streaming from Space Station
objects crossing your sky now

THORAD AGENA D DEB

Track THORAD AGENA D DEB now!
10-day predictions


NORAD ID: 42494
Int'l Code: 1970-025QY
Perigee: 971.6 km
Apogee: 1,121.1 km
Inclination: 99.8 °
Period: 106.0 minutes
Semi major axis: 7417 km
RCS: Unknown
Launch date: April 8, 1970
Source: United States (US)
Launch site: AIR FORCE WESTERN TEST RANGE (AFWTR)

Note: This is SATELLITE DEBRIS
Your satellite tracking list
Your tracking list is empty




NASA's NSSDC Master Catalog

Two Line Element Set (TLE):
1 42494U 70025QY  23276.42048200  .00000593  00000-0  83876-3 0  9999
2 42494  99.7794 347.2262 0100743 136.5218 224.3919 13.59031696477211
Source of the keplerian elements: AFSPC